TimeEST,TemperatureF,Dew PointF,Humidity,Sea Level PressureIn,VisibilityMPH,Wind Direction,Wind SpeedMPH,Gust SpeedMPH,PrecipitationIn,Events,Conditions,WindDirDegrees,DateUTC
12:55 AM,49.8,49.3,98,30.04,0.5,East,3.5,-,N/A,Fog,Fog,100,2013-01-16 05:55:00
1:55 AM,49.8,49.5,99,30.05,0.5,ENE,3.5,-,N/A,Fog,Fog,70,2013-01-16 06:55:00
2:39 AM,50.0,50.0,100,30.06,0.5,North,3.5,-,N/A,Fog-Rain,Light Rain,350,2013-01-16 07:39:00
2:55 AM,50.4,49.8,98,30.05,0.5,North,3.5,-,N/A,Fog-Rain,Light Rain,350,2013-01-16 07:55:00
3:55 AM,50.7,50.2,98,30.04,0.5,NW,4.6,-,N/A,Fog,Fog,320,2013-01-16 08:55:00
4:09 AM,50.0,50.0,100,30.04,0.5,NW,3.5,-,N/A,Fog-Rain,Light Rain,320,2013-01-16 09:09:00
4:25 AM,50.0,50.0,100,30.03,1.0,NNW,3.5,-,N/A,Fog-Rain,Light Rain,340,2013-01-16 09:25:00
4:29 AM,50.0,50.0,100,30.03,1.2,Variable,2.3,-,N/A,Fog-Rain,Light Rain,0,2013-01-16 09:29:00
4:34 AM,50.0,50.0,100,30.02,1.5,NNE,4.6,-,N/A,Rain,Light Rain,20,2013-01-16 09:34:00
4:36 AM,50.0,50.0,100,30.02,1.8,NNE,3.5,-,N/A,Rain,Light Rain,20,2013-01-16 09:36:00
4:37 AM,50.0,50.0,100,30.02,2.0,NNE,3.5,-,N/A,Rain,Light Rain,30,2013-01-16 09:37:00
4:40 AM,50.0,50.0,100,30.02,2.5,NE,2.3,-,N/A,Rain,Light Rain,40,2013-01-16 09:40:00
4:42 AM,50.0,50.0,100,30.02,3.0,NE,3.5,-,N/A,Rain,Light Rain,50,2013-01-16 09:42:00
4:55 AM,50.2,49.8,99,30.02,5.0,Variable,2.3,-,0.02,Rain,Light Rain Showers,0,2013-01-16 09:55:00
4:58 AM,50.0,50.0,100,30.01,6.0,Variable,2.3,-,N/A,,Mostly Cloudy,0,2013-01-16 09:58:00
5:55 AM,50.2,49.6,98,30.02,6.0,North,3.5,-,N/A,,Overcast,10,2013-01-16 10:55:00
6:48 AM,50.0,48.2,94,30.03,2.5,North,4.6,-,N/A,,Overcast,350,2013-01-16 11:48:00
6:53 AM,50.0,48.2,94,30.03,1.8,NNW,4.6,-,N/A,,Overcast,340,2013-01-16 11:53:00
6:55 AM,49.1,48.6,98,30.03,1.8,North,4.6,-,N/A,,Overcast,350,2013-01-16 11:55:00
6:56 AM,50.0,48.2,94,30.03,1.5,North,4.6,-,N/A,,Overcast,350,2013-01-16 11:56:00
6:58 AM,50.0,48.2,94,30.03,1.2,North,4.6,-,N/A,,Overcast,350,2013-01-16 11:58:00
7:01 AM,48.2,48.2,100,30.03,1.0,North,4.6,-,N/A,Fog,Fog,350,2013-01-16 12:01:00
7:04 AM,50.0,48.2,94,30.03,0.8,North,5.8,-,N/A,Fog,Fog,360,2013-01-16 12:04:00
7:55 AM,48.9,48.6,99,30.04,0.2,NNE,3.5,-,N/A,Fog,Fog,30,2013-01-16 12:55:00
8:55 AM,49.1,48.6,98,30.05,0.2,NNE,3.5,-,N/A,Fog,Fog,30,2013-01-16 13:55:00
9:55 AM,49.8,49.5,99,30.05,0.2,NE,4.6,-,N/A,Fog,Fog,40,2013-01-16 14:55:00
10:55 AM,52.2,51.6,98,30.04,0.5,Variable,2.3,-,N/A,Fog,Fog,0,2013-01-16 15:55:00
11:12 AM,53.6,53.6,100,30.03,0.8,Variable,2.3,-,N/A,,Mostly Cloudy,0,2013-01-16 16:12:00
11:13 AM,53.6,53.6,100,30.03,1.0,SSE,2.3,-,N/A,,Mostly Cloudy,160,2013-01-16 16:13:00
11:16 AM,53.6,53.6,100,30.02,1.2,South,1.2,-,N/A,,Mostly Cloudy,180,2013-01-16 16:16:00
11:18 AM,53.6,53.6,100,30.02,1.5,Variable,1.2,-,N/A,,Mostly Cloudy,0,2013-01-16 16:18:00
11:19 AM,53.6,53.6,100,30.02,1.8,Variable,1.2,-,N/A,,Mostly Cloudy,0,2013-01-16 16:19:00
11:20 AM,53.6,53.6,100,30.02,2.0,Variable,1.2,-,N/A,,Mostly Cloudy,0,2013-01-16 16:20:00
11:21 AM,53.6,53.6,100,30.02,2.5,ESE,1.2,-,N/A,,Mostly Cloudy,120,2013-01-16 16:21:00
11:23 AM,53.6,53.6,100,30.02,3.0,Variable,1.2,-,N/A,,Mostly Cloudy,0,2013-01-16 16:23:00
11:53 AM,55.4,55.4,100,30.02,5.0,NNW,3.5,-,N/A,Rain,Light Rain,340,2013-01-16 16:53:00
11:55 AM,55.4,54.7,97,30.02,6.0,NW,5.8,-,N/A,,Light Drizzle,320,2013-01-16 16:55:00
12:13 PM,55.4,55.4,100,30.01,6.0,NNW,6.9,-,N/A,,Mostly Cloudy,340,2013-01-16 17:13:00
12:32 PM,55.4,55.4,100,30.01,8.0,NNW,9.2,-,N/A,,Mostly Cloudy,330,2013-01-16 17:32:00
12:37 PM,55.4,55.4,100,30.01,8.0,NW,8.1,-,N/A,,Mostly Cloudy,320,2013-01-16 17:37:00
12:42 PM,55.4,53.6,94,30.01,8.0,NNW,9.2,-,N/A,,Mostly Cloudy,340,2013-01-16 17:42:00
12:55 PM,54.5,54.1,99,30.01,8.0,NNW,6.9,-,N/A,,Overcast,340,2013-01-16 17:55:00
1:10 PM,55.4,53.6,94,30.01,7.0,North,6.9,-,N/A,Rain,Light Rain,360,2013-01-16 18:10:00
1:55 PM,50.9,49.8,96,30.01,8.0,North,12.7,-,0.00,,Light Drizzle,10,2013-01-16 18:55:00
2:55 PM,48.7,48.2,98,30.03,3.0,North,6.9,-,0.03,Rain,Light Rain,360,2013-01-16 19:55:00
2:57 PM,48.2,48.2,100,30.03,3.0,North,5.8,-,N/A,Rain,Light Rain,350,2013-01-16 19:57:00
3:02 PM,48.2,48.2,100,30.03,4.0,NNW,6.9,-,N/A,Rain,Light Rain,340,2013-01-16 20:02:00
3:38 PM,48.2,48.2,100,30.03,2.5,NNW,5.8,-,N/A,Rain,Light Rain,340,2013-01-16 20:38:00
3:46 PM,48.2,48.2,100,30.03,3.0,North,3.5,-,N/A,Rain,Light Rain,360,2013-01-16 20:46:00
3:52 PM,48.2,48.2,100,30.02,6.0,NNE,4.6,-,N/A,Rain,Light Rain,30,2013-01-16 20:52:00
3:55 PM,48.6,48.2,99,30.02,6.0,NE,4.6,-,0.02,Rain,Light Rain,40,2013-01-16 20:55:00
3:57 PM,48.2,48.2,100,30.02,6.0,NE,3.5,-,N/A,Rain,Light Rain,40,2013-01-16 20:57:00
4:27 PM,50.0,48.2,94,30.04,10.0,Variable,1.2,-,N/A,,Light Drizzle,0,2013-01-16 21:27:00
4:38 PM,50.0,48.2,94,30.03,6.0,Variable,1.2,-,N/A,,Light Drizzle,0,2013-01-16 21:38:00
4:47 PM,50.0,50.0,100,30.03,10.0,ESE,2.3,-,N/A,,Overcast,120,2013-01-16 21:47:00
4:55 PM,49.6,49.3,99,30.02,10.0,SE,3.5,-,0.00,,Mostly Cloudy,130,2013-01-16 21:55:00
5:07 PM,50.0,50.0,100,30.01,10.0,ESE,3.5,-,N/A,,Mostly Cloudy,120,2013-01-16 22:07:00
5:11 PM,50.0,50.0,100,30.01,10.0,SE,3.5,-,N/A,,Mostly Cloudy,140,2013-01-16 22:11:00
5:55 PM,50.4,49.8,98,30.01,10.0,SSE,3.5,-,N/A,,Mostly Cloudy,150,2013-01-16 22:55:00
6:25 PM,50.0,50.0,100,30.02,10.0,SSW,1.2,-,N/A,Rain,Light Rain,200,2013-01-16 23:25:00
6:49 PM,51.8,50.0,94,30.01,10.0,ESE,2.3,-,N/A,,Overcast,110,2013-01-16 23:49:00
6:55 PM,51.1,50.4,97,30.02,10.0,NE,2.3,-,N/A,,Overcast,50,2013-01-16 23:55:00
7:39 PM,51.8,50.0,94,30.00,10.0,NNE,5.8,-,N/A,Rain,Light Rain,30,2013-01-17 00:39:00
7:55 PM,51.3,50.7,98,30.01,10.0,Variable,2.3,-,N/A,Rain,Light Rain Showers,0,2013-01-17 00:55:00
7:57 PM,51.8,50.0,94,30.01,10.0,SW,1.2,-,N/A,,Mostly Cloudy,220,2013-01-17 00:57:00
8:55 PM,51.8,51.1,97,30.01,10.0,SSE,2.3,-,N/A,,Mostly Cloudy,150,2013-01-17 01:55:00
9:51 PM,51.8,51.8,100,30.02,10.0,South,5.8,-,N/A,Rain,Light Rain,190,2013-01-17 02:51:00
9:55 PM,52.5,51.6,97,30.03,10.0,South,5.8,-,N/A,,Light Drizzle,190,2013-01-17 02:55:00
10:02 PM,51.8,51.8,100,30.03,10.0,South,5.8,-,N/A,,Light Drizzle,170,2013-01-17 03:02:00
10:07 PM,53.6,51.8,94,30.02,10.0,SSE,4.6,-,N/A,Rain,Light Rain Showers,160,2013-01-17 03:07:00
10:08 PM,53.6,51.8,94,30.02,10.0,SSE,4.6,-,N/A,Rain,Light Rain Showers,160,2013-01-17 03:08:00
10:32 PM,53.6,51.8,94,30.01,7.0,SSW,3.5,-,N/A,Rain,Rain Showers,200,2013-01-17 03:32:00
10:42 PM,53.6,51.8,94,30.01,5.0,Variable,2.3,-,N/A,Rain,Rain Showers,0,2013-01-17 03:42:00
10:47 PM,53.6,51.8,94,30.01,5.0,SSW,2.3,-,N/A,Rain,Rain Showers,200,2013-01-17 03:47:00
10:55 PM,53.2,52.2,96,30.01,4.0,ENE,1.2,-,0.10,Rain,Rain Showers,70,2013-01-17 03:55:00
10:57 PM,53.6,51.8,94,30.01,4.0,ENE,1.2,-,N/A,Rain,Rain Showers,70,2013-01-17 03:57:00
11:29 PM,53.6,51.8,94,30.00,10.0,East,2.3,-,N/A,,Mostly Cloudy,100,2013-01-17 04:29:00
11:55 PM,54.0,52.9,96,30.00,10.0,NW,2.3,-,0.02,,Mostly Cloudy,320,2013-01-17 04:55:00